Theta_e
292 288 285 288 287 284 285 283 282 284 288 288 287 287 290 292 290 290 290 291 291 292 295 294 294 295 297 305 310 316 321 326 328 329 329 329 327 329 329 330 328 323 322 316
289 285 289 289 288 287 285 283 283 284 288 288 285 287 289 290 291 291 291 291 290 290 292 294 294 292 293 296 305 310 317 322 326 329 329 330 330 330 330 330 329 326 324 320
286 287 290 289 285 285 282 282 282 282 284 284 282 283 284 286 288 289 290 290 290 292 293 292 292 292 292 292 293 303 312 318 324 327 327 319 325 323 327 328 328 327 325 323
287 289 288 287 285 285 281 287 286 285 283 279 282 276 281 284 287 288 289 288 289 289 289 291 294 294 293 293 292 294 303 311 319 323 324 325 326 325 327 328 329 327 326 324
286 288 287 285 287 288 285 287 286 283 281 280 279 278 281 282 285 287 287 290 290 292 293 294 294 295 296 296 295 296 299 307 314 319 323 324 323 324 317 325 324 322 324 325
286 289 289 288 287 287 289 285 284 281 279 276 279 279 279 281 283 287 286 290 291 292 292 292 292 294 294 296 296 301 305 307 312 315 316 320 321 313 311 311 322 321 320 320
285 286 289 289 286 288 284 283 277 275 274 275 277 277 280 284 285 285 289 292 292 291 292 293 293 294 294 294 295 297 302 305 308 312 313 314 314 312 312 310 316 312 313 311
281 280 288 290 288 286 284 283 278 271 272 275 280 277 282 286 289 290 291 291 292 292 292 293 293 293 293 294 295 296 297 298 303 307 308 309 310 310 309 308 307 307 311 314
281 281 286 287 288 290 284 281 283 278 267 273 277 281 286 287 289 290 290 290 291 291 292 292 293 293 293 294 295 295 296 296 297 298 301 303 303 304 304 304 303 303 302 303
286 280 285 286 288 288 285 287 280 278 269 268 275 277 280 284 287 289 289 290 291 291 291 291 292 292 293 294 295 296 296 296 296 297 298 299 299 300 300 300 300 299 299 299
285 283 282 286 284 283 283 282 282 282 278 273 270 276 282 284 288 289 289 290 291 291 290 290 291 291 292 292 293 294 295 296 296 297 297 297 297 298 298 298 298 297 297 297
287 284 279 282 285 286 284 284 284 279 276 277 277 280 287 289 290 290 291 292 291 290 291 291 292 292 292 292 292 293 293 293 294 295 295 296 296 296 296 296 296 295 295 295
288 282 273 279 282 284 283 284 285 283 281 278 275 281 287 288 289 289 290 290 291 291 291 291 291 291 291 291 291 291 292 291 292 293 293 293 293 294 294 294 294 294 294 294
294 284 283 280 280 285 283 283 285 285 278 282 279 281 285 288 289 289 289 290 290 290 290 290 290 290 290 290 289 290 290 290 289 290 290 290 290 290 291 291 292 292 292 291
291 282 282 282 283 282 282 283 284 284 286 281 285 282 287 290 290 290 290 289 289 289 289 289 289 289 289 289 289 289 288 288 287 287 287 287 287 287 287 287 287 286 287 287
292 281 285 282 286 283 280 283 283 285 286 283 283 283 289 290 290 289 289 289 288 288 289 289 290 290 289 289 289 289 288 287 286 287 286 285 285 285 285 285 285 285 286 286
287 285 283 281 285 284 281 284 284 284 285 286 283 288 290 287 289 288 288 288 287 288 288 289 289 289 289 288 288 287 286 285 284 284 284 283 283 283 283 284 283 284 284 284
285 285 284 280 282 277 284 283 287 287 287 288 287 288 291 291 289 288 287 286 286 287 287 288 288 288 288 287 286 285 284 284 284 283 283 282 282 282 283 282 282 281 282 282
289 286 281 279 277 279 281 281 284 284 285 290 289 286 286 287 287 285 286 285 285 285 286 287 287 288 287 286 285 284 284 284 283 283 282 281 280 279 280 280 281 281 279 282
286 289 283 278 276 273 279 280 285 288 279 279 286 285 284 285 280 283 286 285 285 284 285 285 286 285 284 284 283 283 283 282 282 282 282 281 280 277 277 279 279 277 277 281
281 284 281 279 278 278 281 283 286 279 279 279 282 283 282 280 283 283 285 284 284 284 283 284 283 283 283 282 281 281 280 281 281 279 279 279 278 276 276 275 279 276 277 279
280 280 280 280 278 275 280 282 281 282 282 281 281 281 280 281 282 282 282 282 283 283 283 283 280 281 281 280 279 279 279 280 278 277 276 275 275 275 277 271 277 273 273 276
275 280 279 280 279 281 280 281 284 285 283 281 281 281 282 281 280 281 281 282 282 281 282 279 278 278 279 278 277 277 279 278 278 279 278 273 274 275 276 271 273 276 278 279
276 279 276 278 281 281 280 281 282 282 282 282 282 282 282 281 281 281 281 282 280 279 277 275 274 275 276 275 276 274 276 277 273 274 277 279 279 279 278 277 276 275 277 277
277 278 275 274 278 279 280 280 281 281 281 281 281 281 280 281 280 280 278 277 277 275 274 273 273 273 271 272 270 270 271 269 269 270 271 273 277 280 279 278 279 278 279 277
277 277 276 274 281 280 280 281 281 280 280 279 279 278 278 278 277 275 274 274 272 270 270 270 269 268 267 267 267 267 265 265 266 268 271 272 273 274 277 279 280 283 283 284
Wind_Speed
3 4 7 10 5 3 7 5 3 3 2 2 6 7 12 11 7 9 11 11 11 11 10 7 9 8 9 8 9 12 13 14 11 10 11 9 10 8 8 8 10 11 11 11
5 5 6 6 6 5 4 5 3 2 2 2 5 11 10 9 11 8 9 12 9 8 9 9 8 5 8 8 11 9 13 12 13 11 11 9 10 8 8 8 9 12 13 13
7 3 9 6 4 6 2 6 4 3 1 3 5 9 6 6 4 6 9 7 7 10 10 9 8 5 4 7 8 9 13 13 13 14 6 3 3 2 5 7 8 11 13 12
4 3 6 4 5 6 5 5 4 4 3 3 3 8 7 5 11 7 7 7 8 8 5 5 6 6 5 3 2 6 8 8 9 10 10 14 12 12 10 8 7 8 12 13
7 8 5 4 6 6 4 5 5 3 4 3 3 1 8 2 7 8 3 8 8 7 7 7 7 6 5 6 4 1 4 6 7 9 11 10 9 6 2 5 6 5 8 11
3 1 4 6 4 2 9 7 7 5 3 2 7 7 7 5 5 2 5 7 8 8 7 7 5 6 6 7 7 6 4 3 6 7 7 10 10 6 4 4 7 5 5 5
2 2 1 3 7 5 4 7 2 3 3 7 2 1 10 6 5 3 5 8 8 6 5 6 8 8 8 9 8 6 5 3 2 5 6 6 6 7 7 6 6 5 4 3
8 4 8 5 7 10 7 8 8 9 5 4 3 8 8 2 1 2 2 3 5 7 6 7 7 6 7 7 8 7 8 5 4 3 3 3 4 3 3 3 3 3 3 4
6 5 0 2 4 9 6 6 6 8 3 4 5 7 9 3 4 4 4 4 6 7 7 8 8 8 8 9 9 7 7 7 8 6 4 4 2 2 2 2 2 2 2 3
8 3 1 2 3 2 6 8 4 3 3 4 5 5 7 5 7 3 2 5 5 6 8 7 7 7 7 7 6 7 7 5 5 5 5 4 4 3 2 1 2 3 4 4
6 4 2 4 7 9 4 3 3 6 6 8 1 8 7 6 8 7 3 3 6 6 7 7 7 7 7 6 7 6 5 7 8 7 5 6 4 4 3 1 2 3 3 5
7 5 5 8 2 3 2 8 8 7 5 3 3 10 3 8 8 7 4 5 6 7 7 7 7 7 7 7 7 8 9 9 6 5 6 5 5 6 5 4 5 3 5 4
9 4 4 6 2 2 5 5 3 5 4 9 7 12 5 4 5 1 4 6 6 6 7 6 7 7 7 7 8 8 8 7 6 6 7 7 7 7 6 6 6 6 6 6
2 3 12 18 5 8 7 7 10 8 4 13 10 4 5 6 7 3 3 6 6 6 6 5 6 6 6 6 6 6 7 6 7 6 6 6 6 6 6 6 6 7 6 7
2 6 3 2 2 3 4 7 11 15 23 11 23 12 14 16 14 6 6 6 7 6 5 5 5 5 5 7 6 6 6 6 6 7 7 7 6 5 6 6 6 6 6 6
1 3 3 3 4 1 3 5 5 15 13 9 2 7 4 6 8 5 6 7 6 5 4 5 5 5 6 5 6 5 6 7 7 8 8 7 8 7 7 7 7 6 6 6
2 5 5 10 10 4 8 17 13 6 7 12 14 14 7 5 9 9 8 7 7 5 4 3 4 5 5 6 6 7 7 6 6 6 5 5 6 7 6 6 6 7 7 6
5 3 1 1 8 12 5 2 8 14 4 8 1 5 12 7 7 7 5 7 6 4 3 4 4 4 4 4 5 5 6 6 6 6 6 6 7 8 8 8 7 6 5 7
5 5 2 3 3 6 5 5 8 10 13 15 9 6 5 9 7 5 4 4 5 3 1 1 1 1 2 4 5 5 6 6 6 6 6 6 5 7 7 9 10 9 5 8
2 5 8 4 3 8 6 3 2 5 7 4 7 14 12 8 5 5 5 5 4 2 1 3 3 2 3 5 4 6 6 6 6 6 8 7 5 5 6 6 8 4 5 8
4 6 10 6 6 8 5 3 1 7 7 2 5 7 6 5 2 7 5 4 1 2 3 2 4 4 5 6 5 6 5 6 5 6 7 7 6 6 5 5 6 4 8 8
7 7 5 6 7 10 5 3 9 4 4 7 9 7 10 7 7 6 6 4 5 5 5 7 6 6 6 4 3 5 6 5 5 5 7 7 6 6 6 5 6 5 5 7
2 5 5 5 4 1 2 3 3 2 11 5 8 7 8 7 4 4 3 5 5 5 5 4 5 6 5 5 3 6 8 8 9 10 9 5 6 6 5 5 6 5 6 6
3 3 3 4 2 2 4 4 6 5 8 7 6 6 5 6 4 3 3 4 4 4 5 4 5 4 5 4 5 4 8 8 7 8 9 9 10 10 8 4 4 4 5 5
3 6 6 1 3 4 3 2 6 6 7 8 5 5 6 6 4 4 2 2 4 4 4 4 5 6 7 5 5 4 7 5 6 6 7 7 7 9 10 8 6 5 6 6
5 7 5 6 11 5 7 7 6 7 5 5 5 5 4 4 5 3 2 2 2 4 5 7 6 6 7 8 8 7 7 8 8 9 6 6 7 7 7 8 8 8 14 14
Wind_Direction
29 106 191 198 170 125 135 126 165 247 3 208 233 268 276 289 293 258 256 264 265 258 276 265 260 236 218 208 194 196 188 196 182 191 196 199 209 205 201 201 187 185 188 186
51 217 206 121 130 115 124 120 204 303 26 176 356 285 268 267 258 251 264 272 267 281 292 282 285 262 214 211 208 200 204 194 194 195 201 204 204 209 204 201 195 189 191 191
156 227 141 123 128 141 169 154 181 179 355 61 347 298 308 293 274 279 264 272 276 259 275 297 315 299 251 229 214 208 207 201 199 200 176 100 92 80 182 196 197 194 193 195
205 148 133 139 177 134 168 190 138 142 93 235 30 284 303 307 303 278 332 323 317 306 307 336 1 5 10 338 270 223 211 206 204 186 183 194 205 209 213 203 202 195 193 198
230 164 145 162 194 159 194 116 122 92 96 64 326 55 268 341 282 288 320 335 336 351 44 23 17 16 17 15 24 16 210 202 187 180 188 192 205 216 185 195 174 184 196 214
154 89 158 182 73 108 151 82 55 55 85 321 222 171 277 208 211 277 317 328 340 346 3 19 24 23 16 17 26 30 104 147 169 176 172 184 197 165 148 169 206 197 201 195
51 191 164 130 85 36 82 88 4 356 2 226 0 157 250 240 231 229 304 323 339 355 31 33 26 13 8 14 17 25 32 64 159 169 169 174 172 163 182 174 194 175 189 191
156 238 164 184 173 163 186 161 156 194 197 244 70 236 249 186 10 67 78 330 10 36 27 32 17 16 13 16 26 27 33 32 56 96 142 152 169 179 184 189 186 198 208 217
148 263 43 150 151 147 196 210 157 106 13 49 216 284 309 56 103 61 31 52 32 32 32 24 13 17 10 14 23 13 37 35 30 41 53 62 69 143 188 223 229 241 232 242
200 133 22 148 113 30 157 161 87 10 146 243 269 269 232 185 192 186 81 60 31 28 38 26 25 17 22 20 15 32 49 64 57 58 53 62 57 56 64 106 252 240 260 240
144 125 309 111 213 159 134 185 65 125 153 172 220 254 223 179 164 170 151 69 44 35 39 32 25 25 29 28 32 32 30 43 37 36 37 35 35 46 36 10 272 247 246 243
183 135 166 201 243 223 222 198 159 153 218 244 159 253 318 148 152 163 144 78 57 58 51 41 35 35 35 33 33 36 28 32 20 23 37 23 14 20 14 355 327 302 273 265
180 212 69 357 342 348 209 189 152 107 82 203 143 257 31 104 145 171 87 81 74 67 54 46 37 31 31 28 29 31 30 19 15 24 33 22 18 17 0 345 331 320 308 287
37 135 202 220 219 142 194 195 184 175 158 228 222 216 194 221 203 221 125 113 98 84 73 63 48 39 34 34 27 27 26 16 359 15 32 30 11 360 352 337 335 327 322 307
167 206 158 84 72 98 173 184 188 200 222 185 246 210 192 198 198 202 165 141 118 91 59 48 46 32 22 26 17 15 16 7 354 14 23 9 350 355 355 352 336 324 317 294
24 241 124 265 200 200 297 255 224 225 232 243 111 238 213 146 112 151 167 141 122 104 69 36 33 32 21 18 10 358 4 3 2 3 2 357 356 349 349 339 330 324 319 312
142 144 143 247 164 156 272 225 198 207 202 212 224 224 163 149 176 170 155 148 136 110 75 40 31 28 4 2 5 356 349 341 359 343 340 348 349 339 336 324 326 330 326 319
147 99 130 156 132 218 256 52 195 204 214 208 233 158 172 160 122 126 130 137 129 117 61 20 14 4 1 351 350 340 341 343 336 331 342 353 352 342 337 335 329 319 312 312
166 138 190 196 231 299 296 193 157 170 248 212 196 143 102 106 84 72 121 114 123 122 137 259 295 301 336 331 328 331 333 337 339 344 342 339 341 328 331 331 329 327 320 327
186 208 161 147 216 209 241 328 174 127 280 225 163 159 149 131 139 185 157 142 134 74 18 354 351 355 357 338 339 343 340 341 337 343 333 327 323 317 314 309 312 294 308 304
165 185 199 178 203 282 222 164 238 148 246 188 117 120 121 109 126 136 136 136 105 123 62 28 27 17 354 340 348 345 339 339 329 325 315 314 314 306 291 296 306 296 308 301
165 170 197 192 192 242 171 114 173 168 40 101 98 107 107 113 109 100 99 64 43 31 28 26 19 0 351 359 25 339 332 324 324 314 305 307 305 304 302 296 303 295 298 304
220 186 173 194 222 297 261 206 106 130 122 102 101 108 115 115 88 80 56 39 45 42 45 26 4 331 354 355 33 333 329 332 326 320 318 292 291 291 282 285 294 304 304 299
256 174 151 127 194 64 90 60 82 99 104 105 109 113 95 117 106 78 66 48 42 32 19 3 348 338 331 3 348 293 310 322 316 306 310 312 315 316 315 296 273 280 298 296
188 128 144 47 44 70 323 117 132 109 104 107 95 111 127 130 130 117 95 50 14 2 356 342 328 327 315 316 299 311 340 327 313 295 289 291 297 309 309 302 287 278 274 253
189 168 163 212 185 162 180 171 147 140 145 135 137 132 105 104 124 123 144 67 36 342 331 334 332 314 311 323 325 328 349 346 329 314 308 305 302 297 292 286 290 275 286 295